Location: Unspecified
(22.6800°N, 112.2000°E)
Time: 10:43:33
(UTC+08:00)

S-56A Canister/Altair - Pass Details

Date: 02 August 2021
Orbit: 632 x 2500 km, 38.9° (Epoch: 27 September)

Event Time Altitude Azimuth Distance (km) Brightness Sun altitude
Rises 20:58:43 0° 303° (WNW) 6,172 13.6 -23.1°
Reaches altitude 10° 21:02:54 10° 304° (NW) 5,103 12.8 -23.9°
Maximum altitude 21:17:32 86° 34° (NE) 2,056 9.5 -26.7°
Enters shadow 21:22:04 45° 120° (ESE) 2,372 9.4 -27.5°
Drops below altitude 10° 21:27:56 10° 123° (ESE) 3,760 - -28.6°
Sets 21:30:32 0° 124° (ESE) 4,520 - -29.1°
